sat.trackr.live / text

‹ back to catalog

STARLINK-11209 [DTC]

NORAD 61200 · 2024-171A

PAYLOAD ACTIVE UNKNOWN

§ Identity

Operator
Country
US
Launch date
2024-09-20
Launch site
AFWTR
Launch vehicle
Mass (kg)
RCS (m²)

Purposes: comms

External: N2YO · Heavens-Above · Gunter

§ Orbital elements

Epoch: 2026-05-25T00:19:06.398400Z

Period
91.74 min
Inclination
53.1592°
Eccentricity
0.0000694
Mean motion
15.69703051 rev/d
Perigee alt
359.3 km
Apogee alt
360.2 km
Semi-major
6,737.9 km
B*
2.5082e-5
RAAN
160.2102°
Arg perigee
67.6262°
Mean anomaly
292.4829°
Rev number
9,729

§ Raw data

STARLINK-11209 [DTC]1 61200U 24171A   26145.01326850  .00002451  00000+0  25082-4 0  99992 61200  53.1592 160.2102 0000694  67.6262 292.4829 15.69703051 97296

JSON: /api/v1/satellites/61200 · /tle

For live sub-satellite position, see the globe view (requires WebGL).

§ Visibility from observer

Set your observer location to see the next 7 days of passes ≥ 10°. The values pass through the URL so the page stays shareable.

No JS? Fill the form by hand. The geolocation button needs JavaScript.